| time (UTC) | temp F | wind direction | speed knots | gust knots | rain 1hr in | rain 24hr in | rain mn in | humidity % | barometer mb |
| 20260509022308 | 73 | 303 | 0.9 | 4.3 | 0.00 | 0.00 | 0.00 | 30 | 1020.4 |
| 20260509014255 | 73 | 112 | 0.0 | 6.1 | 0.00 | 0.00 | 0.00 | 30 | 1020.7 |
| 20260509004237 | 70 | 112 | 2.6 | 3.5 | 0.00 | 0.00 | 0.00 | 34 | 1021.3 |
| 20260509002231 | 68 | 334 | 0.0 | 2.6 | 0.00 | 0.00 | 0.00 | 39 | 1021.7 |
| 20260508232212 | 61 | 132 | 0.0 | 2.6 | 0.00 | 0.00 | 0.00 | 50 | 1022.2 |
| 20260508230206 | 59 | 127 | 0.9 | 1.7 | 0.00 | 0.00 | 0.00 | 52 | 1022.3 |
| 20260508225203 | 58 | 180 | 0.9 | 2.6 | 0.00 | 0.00 | 0.00 | 56 | 1022.3 |
| 20260508223157 | 55 | 111 | 0.9 | 1.7 | 0.00 | 0.00 | 0.00 | 67 | 1022.6 |
| 20260508222153 | 52 | 90 | 0.0 | 0.9 | 0.00 | 0.00 | 0.00 | 72 | 1022.7 |
| 20260508220147 | 47 | 112 | 0.0 | 0.0 | 0.00 | 0.00 | 0.00 | 80 | 1022.8 |
| 20260508214141 | 41 | 90 | 0.0 | 0.0 | 0.00 | 0.00 | 0.00 | 88 | 1023.1 |
| 20260508210128 | 32 | 135 | 0.0 | 0.0 | 0.00 | 0.00 | 0.00 | 90 | 1023.5 |
| 20260508205125 | 31 | 135 | 0.0 | 0.0 | 0.00 | 0.00 | 0.00 | 89 | 1023.3 |
| 20260508204122 | 30 | 135 | 0.0 | 0.0 | 0.00 | 0.00 | 0.00 | 89 | 1023.3 |
| 20260508202116 | 30 | 135 | 0.0 | 0.0 | 0.00 | 0.00 | 0.00 | 88 | 1023.1 |
| 20260508200111 | 30 | 135 | 0.0 | 0.0 | 0.00 | 0.00 | 0.00 | 87 | 1023.1 |
| 20260508195107 | 31 | 135 | 0.0 | 0.0 | 0.00 | 0.00 | 0.00 | 87 | 1022.8 |
| 20260508194104 | 31 | 135 | 0.0 | 0.0 | 0.00 | 0.00 | 0.00 | 87 | 1022.6 |
| 20260508192057 | 31 | 135 | 0.0 | 0.0 | 0.00 | 0.00 | 0.00 | 86 | 1022.3 |
| 20260508190051 | 31 | 135 | 0.0 | 0.0 | 0.00 | 0.00 | 0.00 | 87 | 1022.4 |
| 20260508182041 | 32 | 180 | 0.0 | 0.0 | 0.00 | 0.00 | 0.00 | 85 | 1022.1 |
| 20260508175029 | 33 | 90 | 0.0 | 0.0 | 0.00 | 0.00 | 0.00 | 84 | 1022.1 |
| 20260508174026 | 33 | 90 | 0.0 | 0.0 | 0.00 | 0.00 | 0.00 | 84 | 1022.0 |
| 20260508171017 | 34 | 180 | 0.9 | 1.7 | 0.00 | 0.00 | 0.00 | 85 | 1021.8 |
| 20260508165013 | 33 | 112 | 0.0 | 0.0 | 0.00 | 0.00 | 0.00 | 83 | 1021.7 |
| 20260508155955 | 35 | 180 | 0.9 | 1.7 | 0.00 | 0.00 | 0.00 | 83 | 1021.6 |
| 20260508153949 | 35 | 90 | 0.0 | 0.0 | 0.00 | 0.00 | 0.00 | 81 | 1021.9 |
| 20260508151943 | 35 | 180 | 0.0 | 0.0 | 0.00 | 0.00 | 0.00 | 81 | 1022.0 |
| 20260508141924 | 35 | 112 | 0.0 | 0.0 | 0.00 | 0.00 | 0.00 | 77 | 1021.9 |
| 20260508135918 | 35 | 180 | 0.0 | 0.0 | 0.00 | 0.00 | 0.00 | 76 | 1022.1 |
| 20260508134915 | 36 | 180 | 0.0 | 0.0 | 0.00 | 0.00 | 0.00 | 76 | 1021.9 |
| 20260508083739 | 52 | 225 | 0.0 | 0.9 | 0.00 | 0.00 | 0.00 | 50 | 1020.1 |
| 20260508075726 | 56 | 0 | 0.0 | 0.0 | 0.00 | 0.00 | 0.00 | 44 | 1019.4 |
| 20260508070711 | 60 | 112 | 0.0 | 1.7 | 0.00 | 0.00 | 0.00 | 40 | 1018.5 |
| 20260508065710 | 61 | 189 | 3.5 | 4.3 | 0.00 | 0.00 | 0.00 | 39 | 1018.4 |
| 20260508064705 | 61 | 225 | 0.0 | 5.2 | 0.00 | 0.00 | 0.00 | 38 | 1018.3 |
| 20260508062701 | 62 | 257 | 7.8 | 7.8 | 0.00 | 0.00 | 0.00 | 39 | 1018.0 |
| 20260508061655 | 62 | 217 | 4.3 | 6.1 | 0.00 | 0.00 | 0.00 | 38 | 1017.9 |
| 20260508055649 | 64 | 210 | 4.3 | 7.0 | 0.00 | 0.00 | 0.00 | 36 | 1017.8 |
| 20260508053643 | 66 | 139 | 3.5 | 6.1 | 0.00 | 0.00 | 0.00 | 34 | 1017.4 |
| 20260508043627 | 67 | 178 | 2.6 | 7.8 | 0.00 | 0.00 | 0.00 | 33 | 1017.2 |
| 20260508042621 | 66 | 213 | 3.5 | 7.8 | 0.00 | 0.00 | 0.00 | 33 | 1017.3 |
| 20260508032602 | 65 | 248 | 5.2 | 7.8 | 0.00 | 0.00 | 0.00 | 35 | 1018.0 |
| 20260508024550 | 63 | 268 | 3.5 | 6.1 | 0.00 | 0.00 | 0.00 | 37 | 1018.4 |